Sutton Bonington, United Kingdom

3:39 PM GMT on February 20, 2017 (GMT +0000)
East Midlands

Weather History for EGNX - March, 2013

Change the Weather History Date:

Saturday, March 30, 2013

  Actual Average Record
Temperature  
Mean Temperature 34 °F -  
Max Temperature 41 °F 54 °F 60 °F (1998)
Min Temperature 28 °F 39 °F 28 °F (2013)
Degree Days  
Heating Degree Days 30    
Moisture  
Dew Point 26 °F    
Average Humidity 77    
Maximum Humidity 93    
Minimum Humidity 49    
Precipitation  
Precipitation 0.00 in - - ()
Sea Level Pressure  
Sea Level Pressure 29.91 in    
Wind  
Wind Speed 7 mph ()    
Max Wind Speed 17 mph    
Max Gust Speed -    
Visibility 6.2 miles    
Events Snow    
Averages and records for this station are not official NWS values.
T = Trace of Precipitation, MM = Missing Value Source: Averaged Metar Reports

Daily Weather History Graph

Daily Weather History Graph

Search for Another Location

Airport or City:

Trip Planner

Search our weather history database for the weather conditions in past years. The results will help you decide how hot, cold, wet, or windy it might be!

Date:

Astronomy

Mar. 30, 2013 Rise Set
Actual Time 5:43 AM GMT 6:36 PM GMT
Civil Twilight 5:09 AM GMT 7:11 PM GMT
Nautical Twilight 4:27 AM GMT 7:53 PM GMT
Astronomical Twilight 3:42 AM GMT 8:39 PM GMT
Moon 11:00 PM GMT (3/30) 6:58 AM GMT (3/30)
Length of Visible Light 14h 02m
Length of Day
12h 52m
Waning Gibbous, 88% of the Moon is Illuminated
Mar 30
Waning Gibbous
Apr 3
Last Quarter
Apr 10
New
Apr 18
First Quarter
Apr 25
Full

Hourly Weather History & Observations

Time (GMT) Temp. Windchill Dew Point Humidity Pressure Visibility Wind Dir Wind Speed Gust Speed Precip Events Conditions
12:20 AM 28.4 °F 22.2 °F 26.6 °F 93% 29.86 in - NE 5.8 mph - N/A   Clear
12:50 AM 30.2 °F 25.4 °F 28.4 °F 93% 29.86 in 6.2 mi NNE 4.6 mph - N/A   Scattered Clouds
1:20 AM 30.2 °F 25.4 °F 28.4 °F 93% 29.86 in 6.2 mi North 4.6 mph - N/A   Mostly Cloudy
1:50 AM 30.2 °F 25.4 °F 26.6 °F 86% 29.83 in 6.2 mi NNE 4.6 mph - N/A   Scattered Clouds
2:20 AM 28.4 °F 21.2 °F 26.6 °F 93% 29.83 in 6.2 mi NNE 6.9 mph - N/A   Scattered Clouds
2:50 AM 28.4 °F 22.2 °F 26.6 °F 93% 29.83 in 6.2 mi North 5.8 mph - N/A   Partly Cloudy
3:20 AM 28.4 °F 21.2 °F 26.6 °F 93% 29.83 in 6.2 mi North 6.9 mph - N/A   Partly Cloudy
3:50 AM 28.4 °F 22.2 °F 26.6 °F 93% 29.83 in 6.2 mi North 5.8 mph - N/A   Partly Cloudy
4:20 AM 28.4 °F 21.2 °F 26.6 °F 93% 29.86 in 6.2 mi North 6.9 mph - N/A   Partly Cloudy
4:50 AM 28.4 °F 22.2 °F 26.6 °F 93% 29.86 in 6.2 mi North 5.8 mph - N/A   Partly Cloudy
5:20 AM 28.4 °F 23.3 °F 26.6 °F 93% 29.86 in 6.2 mi NNE 4.6 mph - N/A   Partly Cloudy
5:50 AM 28.4 °F 21.2 °F 26.6 °F 93% 29.86 in 6.2 mi North 6.9 mph - N/A   Partly Cloudy
6:20 AM 28.4 °F 22.2 °F 26.6 °F 93% 29.86 in 6.2 mi North 5.8 mph - N/A   Partly Cloudy
6:50 AM 28.4 °F 24.6 °F 26.6 °F 93% 29.89 in 6.2 mi North 3.5 mph - N/A   Scattered Clouds
7:20 AM 30.2 °F 22.6 °F 28.4 °F 93% 29.89 in 6.2 mi North 8.1 mph - N/A   Overcast
7:50 AM 32.0 °F 25.6 °F 28.4 °F 87% 29.89 in 6.2 mi NNE 6.9 mph - N/A Snow Light Snow
8:20 AM 33.8 °F 28.6 °F 30.2 °F 87% 29.89 in 6.2 mi NNE 5.8 mph - N/A   Scattered Clouds
8:50 AM 37.4 °F 28.9 °F 30.2 °F 75% 29.89 in 6.2 mi NE 13.8 mph - N/A   Scattered Clouds
9:20 AM 35.6 °F 27.1 °F 28.4 °F 75% 29.89 in 6.2 mi NE 12.7 mph - N/A   Mostly Cloudy
9:50 AM 35.6 °F 26.6 °F 28.4 °F 75% 29.89 in 6.2 mi NE 13.8 mph - N/A   Mostly Cloudy
10:20 AM 33.8 °F 25.3 °F 30.2 °F 87% 29.92 in 6.2 mi ENE 11.5 mph - N/A Snow Light Snow Showers
10:50 AM 37.4 °F 29.8 °F 32.0 °F 81% 29.92 in 6.2 mi ENE 11.5 mph - N/A   Mostly Cloudy
11:20 AM 39.2 °F 32.5 °F 30.2 °F 70% 29.92 in 6.2 mi NE 10.4 mph - N/A   Mostly Cloudy
11:50 AM 37.4 °F 30.3 °F 26.6 °F 65% 29.92 in 6.2 mi NE 10.4 mph - N/A   Mostly Cloudy
12:20 PM 37.4 °F 27.8 °F 26.6 °F 65% 29.92 in 6.2 mi NE 17.3 mph - N/A   Mostly Cloudy
12:50 PM 37.4 °F 28.5 °F 28.4 °F 70% 29.92 in 6.2 mi ENE 15.0 mph - N/A   Mostly Cloudy
1:20 PM 39.2 °F 31.2 °F 28.4 °F 65% 29.92 in 6.2 mi ENE 13.8 mph - N/A   Mostly Cloudy
1:50 PM 37.4 °F 28.5 °F 28.4 °F 70% 29.92 in 6.2 mi NE 15.0 mph - N/A   Mostly Cloudy
2:20 PM 37.4 °F 30.8 °F 30.2 °F 75% 29.92 in 6.2 mi ENE 9.2 mph - N/A   Mostly Cloudy
2:50 PM 39.2 °F 31.6 °F 28.4 °F 65% 29.92 in 6.2 mi NE 12.7 mph - N/A   Scattered Clouds
3:20 PM 41.0 °F 33.9 °F 26.6 °F 57% 29.92 in 6.2 mi ENE 12.7 mph - N/A   Mostly Cloudy
3:50 PM 39.2 °F 31.6 °F 26.6 °F 61% 29.92 in 6.2 mi NE 12.7 mph - N/A   Mostly Cloudy
4:20 PM 39.2 °F 32.0 °F 24.8 °F 56% 29.92 in 6.2 mi ENE 11.5 mph - N/A   Scattered Clouds
4:50 PM 41.0 °F 34.7 °F 23.0 °F 49% 29.92 in 6.2 mi ENE 10.4 mph - N/A   Scattered Clouds
5:20 PM 39.2 °F 31.6 °F 23.0 °F 52% 29.95 in 6.2 mi ENE 12.7 mph - N/A   Mostly Cloudy
5:50 PM 37.4 °F 30.3 °F 23.0 °F 56% 29.95 in 6.2 mi ENE 10.4 mph - N/A   Mostly Cloudy
6:20 PM 35.6 °F 28.0 °F 23.0 °F 60% 29.95 in 6.2 mi ENE 10.4 mph - N/A   Scattered Clouds
6:50 PM 35.6 °F 29.9 °F 23.0 °F 60% 29.95 in 6.2 mi ENE 6.9 mph - N/A   Mostly Cloudy
7:20 PM 33.8 °F 27.0 °F 23.0 °F 65% 29.98 in 6.2 mi ENE 8.1 mph - N/A   Partly Cloudy
7:50 PM 32.0 °F 25.6 °F 23.0 °F 69% 29.98 in - ENE 6.9 mph - N/A   Clear
8:20 PM 32.0 °F 26.4 °F 23.0 °F 69% 29.98 in 6.2 mi ENE 5.8 mph - N/A   Partly Cloudy
8:50 PM 30.2 °F 24.3 °F 23.0 °F 75% 29.98 in - ENE 5.8 mph - N/A   Clear
9:20 PM 30.2 °F 25.4 °F 23.0 °F 75% 29.98 in - ENE 4.6 mph - N/A   Clear
9:50 PM 28.4 °F 22.2 °F 21.2 °F 74% 30.01 in - East 5.8 mph - N/A   Clear
10:20 PM 28.4 °F 23.3 °F 21.2 °F 74% 30.01 in - ENE 4.6 mph - N/A   Clear
10:50 PM 28.4 °F 23.3 °F 21.2 °F 74% 30.01 in - ENE 4.6 mph - N/A   Clear
11:20 PM 30.2 °F 25.4 °F 23.0 °F 75% 30.01 in - ENE 4.6 mph - N/A   Clear
11:50 PM 28.4 °F 24.6 °F 21.2 °F 74% 30.01 in - NE 3.5 mph - N/A   Clear